TimeEST,TemperatureF,Dew PointF,Humidity,Sea Level PressureIn,VisibilityMPH,Wind Direction,Wind SpeedMPH,Gust SpeedMPH,PrecipitationIn,Events,Conditions,WindDirDegrees,DateUTC
12:53 AM,42.1,39.9,92,29.88,0.8,NNE,4.6,-,0.00,Rain,Light Rain,30,2012-12-08 05:53:00
1:34 AM,42.8,39.2,87,29.86,0.8,NNE,5.8,-,0.01,Rain,Light Rain,30,2012-12-08 06:34:00
1:53 AM,42.1,39.9,92,29.87,0.8,NNE,4.6,-,0.02,Rain,Light Rain,20,2012-12-08 06:53:00
2:00 AM,42.8,39.2,87,29.86,1.2,NNE,4.6,-,0.00,Rain,Light Rain,20,2012-12-08 07:00:00
2:53 AM,42.1,39.9,92,29.86,1.2,NNE,5.8,-,0.01,Rain,Light Rain,30,2012-12-08 07:53:00
3:53 AM,42.1,39.9,92,29.85,1.2,North,5.8,-,0.01,Rain,Light Rain,360,2012-12-08 08:53:00
4:53 AM,42.1,39.9,92,29.85,1.2,North,4.6,-,0.01,Rain,Light Rain,360,2012-12-08 09:53:00
5:51 AM,42.8,39.2,87,29.82,3.0,North,5.8,-,0.05,Rain,Light Rain,10,2012-12-08 10:51:00
5:53 AM,42.8,39.2,87,29.82,3.0,North,6.9,-,N/A,Rain,Light Rain,10,2012-12-08 10:53:00
6:53 AM,42.1,39.9,92,29.85,4.0,North,5.8,-,0.04,Rain,Light Rain,360,2012-12-08 11:53:00
7:53 AM,42.1,39.9,92,29.85,3.0,NE,5.8,-,0.02,Rain,Light Rain,40,2012-12-08 12:53:00
8:53 AM,41.0,39.0,93,29.86,6.0,North,6.9,-,0.00,,Overcast,360,2012-12-08 13:53:00
9:53 AM,39.9,37.9,93,29.90,4.0,NNW,8.1,-,0.02,Rain,Light Rain,330,2012-12-08 14:53:00
10:40 AM,39.2,37.4,93,29.91,6.0,NNW,9.2,-,0.01,Rain,Light Rain,340,2012-12-08 15:40:00
10:53 AM,39.9,37.0,89,29.92,6.0,NNW,8.1,-,0.02,Rain,Light Rain,340,2012-12-08 15:53:00
11:20 AM,39.2,37.4,93,29.91,10.0,North,8.1,-,0.00,Rain,Light Rain,350,2012-12-08 16:20:00
11:31 AM,39.2,35.6,87,29.91,10.0,North,12.7,18.4,0.00,,Overcast,350,2012-12-08 16:31:00
11:53 AM,37.9,34.0,86,29.92,10.0,North,13.8,-,0.00,,Overcast,350,2012-12-08 16:53:00
12:53 PM,37.9,34.0,86,29.93,10.0,North,10.4,-,0.00,,Overcast,360,2012-12-08 17:53:00
1:50 PM,37.4,33.8,87,29.93,10.0,North,10.4,-,N/A,,Overcast,350,2012-12-08 18:50:00
1:53 PM,37.9,34.0,86,29.95,10.0,NNW,9.2,-,N/A,,Overcast,340,2012-12-08 18:53:00
1:59 PM,37.4,33.8,87,29.94,10.0,NW,10.4,-,N/A,,Overcast,320,2012-12-08 18:59:00
2:16 PM,37.4,33.8,87,29.94,10.0,NNW,5.8,-,N/A,,Overcast,340,2012-12-08 19:16:00
2:53 PM,39.0,33.1,79,29.98,10.0,NNW,9.2,-,N/A,,Overcast,330,2012-12-08 19:53:00
3:50 PM,39.2,33.8,81,30.00,10.0,NNW,8.1,-,N/A,,Overcast,330,2012-12-08 20:50:00
3:53 PM,39.0,33.1,79,30.01,10.0,NW,8.1,-,N/A,,Overcast,320,2012-12-08 20:53:00
4:53 PM,37.9,32.0,79,30.05,10.0,NNW,5.8,-,N/A,,Mostly Cloudy,330,2012-12-08 21:53:00
5:09 PM,37.4,32.0,81,30.04,10.0,NNW,5.8,-,N/A,,Overcast,330,2012-12-08 22:09:00
5:53 PM,37.9,30.0,73,30.08,10.0,NNW,9.2,-,N/A,,Overcast,340,2012-12-08 22:53:00
6:53 PM,37.0,30.0,76,30.11,10.0,NNW,9.2,-,N/A,,Overcast,340,2012-12-08 23:53:00
7:38 PM,35.6,30.2,81,30.12,10.0,NNW,8.1,-,N/A,,Overcast,340,2012-12-09 00:38:00
7:53 PM,36.0,30.0,79,30.14,10.0,NNW,9.2,-,N/A,,Overcast,340,2012-12-09 00:53:00
8:34 PM,35.6,30.2,81,30.14,10.0,North,4.6,-,N/A,,Overcast,360,2012-12-09 01:34:00
8:53 PM,36.0,30.0,79,30.15,10.0,North,5.8,-,N/A,,Overcast,360,2012-12-09 01:53:00
9:53 PM,36.0,28.9,76,30.17,10.0,North,9.2,-,N/A,,Overcast,10,2012-12-09 02:53:00
10:53 PM,36.0,28.0,73,30.18,10.0,Calm,Calm,-,N/A,,Overcast,0,2012-12-09 03:53:00
11:53 PM,36.0,28.0,73,30.20,10.0,Calm,Calm,-,N/A,,Overcast,0,2012-12-09 04:53:00